SL-16 DEB

Satellite information

Favourite Embed

Satellite Type and Status

DEBRISIN ORBIT

Key statistics

Satellite SL-16 DEB at a glance.

Uptime

11942

Days in orbit

Revolutions

≈ 14.1

Per day

Orbit

LEO

Low Earth Orbit

Inclination

71.1

Latest

Satellite identification and parameters

Extended collection of information and parameters for SL-16 DEB.

Object identification

Identified? True

Debris? True

Object name: SL-16 DEB

International designator: 1992-093BS

Object number (NORAD): 22377

Object ID (CCSDS): 22377

Country: COMMONWEALTH OF INDEPENDENT STATES (CIS)

Current information (Y/N): Y

RCS size: SMALL

Orbital parameters

Period: 102.201 minutes

Inclination: 71.0954 deg

SMA: 7240.991 km

Apoapsis: 901.855 km

Periapsis: 823.857 km

RAAN: 163.4597 deg

Eccentricy: 0.00538585

Argument of periapsis: 69.2388 deg

Mean anomaly: 291.4491 deg

Mean motion: 14.08983076 rev/day

Mean motion (dot): 0.00000434 rev/day2

B* drag term: 0.00027356728 1/REarth

Two-line elements (TLE)

Creation date: Sept. 4, 2025, 10:13 a.m.

Reference frame: TEME

Reference center: EARTH

Epoch: Sept. 4, 2025, 4:39 a.m. UTC

TLE line 0: 0 SL-16 DEB

TLE line 1: 1 22377U 92093BS 25247.19378649 .00000434 00000-0 27357-3 0 9999

TLE line 2: 2 22377 71.0954 163.4597 0053859 69.2388 291.4491 14.08983076675150

Live tracking on map

Real-time ground track for satellite SL-16 DEB.

In-orbit conjunctions

A list of the most updated potential collisions computed for object SL-16 DEB.

Target Orbit TCA Probability of collision Miss distance Type
MOS 1A (MOMO 1) SSO 2025-03-01 04:52:34 0.0002044401 868.0 (m) PAYLOAD

Associated space launch

Second generation ELING satellite

SL-16 DEB was lifted into orbit during the mission ‘Zenit-2 | Tselina-2 12’, on board a Zenit-2 space rocket.

The launch took place on Dec. 25, 1992, 5:56 a.m. from 45/1.

For more information about the launch, click the button.

Launch to space Zenit-2 | Tselina-2 12
Zenit-2 | Tselina-2 12

Agency: N/A

Status: Launch Successful

Launch date: Dec. 25, 1992, 5:56 a.m. UTC

Rocket: Zenit-2

Launch pad: 45/1

Location: Baikonur Cosmodrome, Republic of Kazakhstan

...

Latest news about this satellite

There are no fresh news available about this satellite. Check back as we update our databases every day.


Newsletter sign-up

Weekly statistics, charts and insights to help you stay on top of the space industry.